Home > Weather > Karaikudi > Past weeks

Flag for India Weather for the Past 2 Weeks in Karaikudi, Tamil Nadu, India

Now
79 °F

Fog.


Feels Like: 82 °F
Forecast: 72 / 94 °F
Wind: 3 mph from North

Location: Tiruchchirapalli

Current Time: Feb 10, 2016 at 10:15:17 AM

Latest Report: Feb 10, 2016 at 9:30 AM


Visibility: 1 mi

Pressure: 29.98 "Hg

Humidity: 79%

Dew point: 72 °F

Location of KaraikudiLocation

Historic Weather in Karaikudi — Graph

°F

Karaikudi Temperature Yesterday

Maximum temperature yesterday: 93 °F (at 3:00 PM)
Minimum temperature yesterday: 73 °F (at 6:00 AM)
Average temperature yesterday: 82 °F

High & Low Weather Summary for the Past Weeks

 TemperatureHumidityPressure
High93 °F (Feb 9, 3:00 PM)94% (Jan 27, 5:00 AM)30.04 "Hg (Jan 27, 5:00 AM)
Low68 °F (Feb 4, 5:00 AM)38% (Feb 4, 2:30 PM)29.56 "Hg (Feb 6, 3:00 PM)
Average80 °F67%29.92 "Hg
* Reported Jan 26 8:30 AM — Feb 10 9:00 AM, Karaikudi, Weather by CustomWeather, © 2016

Note: Actual official high and low records may vary slightly from our data, if they occured in-between our weather recording intervals... More about our weather records

Advertising

Karaikudi Weather History for the Previous 24 Hours

 ConditionsComfort  
Time TempWeatherWind HumidityBarometerVisibility
9:00 AM
Wed, Feb 10
77 °FFog.3 mph83%29.95 "Hg1 mi
8:30 AM77 °FFog.5 mph83%29.95 "Hg1 mi
8:00 AM77 °FFog.2 mph83%29.95 "Hg1 mi
7:30 AM75 °FFog.2 mph89%29.92 "Hg1 mi
7:00 AM73 °FFog.No wind94%29.92 "Hg1 mi
6:30 AM73 °FFog.3 mph94%29.89 "Hg1 mi
6:00 AM73 °FFog.3 mph94%29.89 "Hg1 mi
5:30 AM73 °FFog.3 mph94%29.89 "Hg1 mi
5:00 AM75 °FFog.3 mph89%29.86 "Hg1 mi
4:30 AM75 °FFog.5 mph89%29.86 "Hg1 mi
4:00 AM75 °FFog.7 mph89%29.86 "Hg1 mi
3:00 AM75 °FFog.No wind89%29.89 "Hg1 mi
2:30 AM75 °FFog.No wind89%29.89 "Hg1 mi
2:00 AM77 °FFog.No wind83%29.89 "Hg1 mi
1:30 AM77 °FFog.No wind83%29.89 "Hg2 mi
1:00 AM77 °FFog.No wind83%29.89 "Hg2 mi
12:30 AM77 °FFog.No wind83%29.92 "Hg2 mi
12:00 AM77 °FFog.2 mph83%29.92 "Hg2 mi
11:30 PM
Tue, Feb 9
77 °FFog.3 mph83%29.92 "Hg2 mi
11:00 PM79 °FFog.5 mph79%29.92 "Hg2 mi
10:30 PM79 °FFog.6 mph79%29.92 "Hg2 mi
10:00 PM81 °FHaze.7 mph74%29.92 "Hg2 mi
9:00 PM82 °FHaze.6 mph66%29.89 "Hg2 mi
8:30 PM84 °FHaze.7 mph58%29.89 "Hg2 mi
7:30 PM86 °FHaze.3 mph52%29.86 "Hg2 mi
7:00 PM88 °FHaze.3 mph49%29.86 "Hg2 mi
6:30 PM88 °FHaze.5 mph46%29.83 "Hg2 mi
6:00 PM90 °FHaze.6 mph43%29.83 "Hg2 mi
5:30 PM90 °FHaze.8 mph43%29.83 "Hg2 mi
5:00 PM91 °FHaze.8 mph44%29.80 "Hg2 mi
4:00 PM93 °FHaze.8 mph41%29.80 "Hg2 mi
3:30 PM93 °FHaze.8 mph41%29.83 "Hg2 mi
3:00 PM93 °FHaze.3 mph41%29.83 "Hg2 mi
2:30 PM91 °FHaze.6 mph44%29.83 "Hg2 mi
1:30 PM90 °FHaze.7 mph49%29.86 "Hg2 mi
1:00 PM88 °FHaze.6 mph49%29.89 "Hg2 mi
12:30 PM88 °FHaze.6 mph49%29.92 "Hg2 mi
12:00 PM88 °FScattered clouds.6 mph52%29.92 "Hg2 mi
11:30 AM86 °FScattered clouds.7 mph55%29.95 "Hg2 mi
11:00 AM84 °FScattered clouds.7 mph62%29.95 "Hg2 mi
10:00 AM82 °FHaze.7 mph70%29.98 "Hg1 mi
Weather by CustomWeather, © 2016

See weather overviewHow to use our weather pages